GW0835 Weather Reports


time (UTC)temp
C
wind
direction
speed
KPH
gust
KPH
rain 1hr
cm
rain 24hr
cm
rain mn
cm
humidity
%
barometer
mb
20260505073056 20 243 6.4 12.9 0.00 0.00 0.00 46 1011.0
20260505071550 19 238 8.0 16.1 0.00 0.00 0.00 46 1011.2
20260505070053 18 212 8.0 16.1 0.00 0.00 0.00 48 1011.2
20260505064600 18 221 6.4 12.9 0.00 0.00 0.00 51 1011.3
20260505063059 17 238 6.4 11.3 0.00 0.00 0.00 53 1011.5
20260505061549 16 211 4.8 11.3 0.00 0.00 0.00 57 1011.5
20260505060053 16 250 3.2 6.4 0.00 0.00 0.00 58 1011.5
20260505054559 16 243 4.8 11.3 0.00 0.00 0.00 58 1011.4
20260505053105 16 244 3.2 6.4 0.00 0.00 0.00 60 1011.5
20260505051552 15 220 1.6 4.8 0.00 0.00 0.00 65 1011.6
20260505041612 12 0 0.0 0.0 0.00 0.00 0.00 72 1011.3
20260505040059 12 0 0.0 0.0 0.00 0.00 0.00 70 1011.3
20260505034558 12 0 0.0 3.2 0.00 0.00 0.00 70 1011.3
20260505033053 11 0 0.0 4.8 0.00 0.00 0.00 72 1011.2
20260505031606 9 0 1.6 3.2 0.00 0.00 0.00 77 1011.2
20260505030051 8 209 0.0 3.2 0.00 0.00 0.00 78 1011.3
20260505024552 9 0 0.0 3.2 0.00 0.00 0.00 77 1011.2
20260505023057 9 0 0.0 3.2 0.00 0.00 0.00 76 1011.3
20260505021555 10 0 1.6 3.2 0.00 0.00 0.00 74 1011.5
20260505020053 10 0 1.6 4.8 0.00 0.00 0.00 73 1011.5
20260505014549 10 80 1.6 4.8 0.00 0.00 0.00 73 1011.6
20260505013059 10 80 0.0 0.0 0.00 0.00 0.00 74 1011.7
20260505011556 10 0 0.0 0.0 0.00 0.00 0.00 73 1011.7
20260505010052 10 0 0.0 4.8 0.00 0.00 0.00 73 1011.6
20260505004549 10 80 1.6 4.8 0.00 0.00 0.00 73 1011.7
20260505003055 11 80 1.6 3.2 0.00 0.00 0.00 73 1011.7
20260505001554 11 80 1.6 3.2 0.00 0.00 0.00 72 1011.8
20260505000058 11 0 0.0 3.2 0.00 0.00 0.00 70 1012.0
20260504234602 12 80 1.6 3.2 0.00 0.00 0.00 68 1012.1
20260504233054 12 158 1.6 3.2 0.00 0.00 0.00 67 1012.2
20260504231559 12 0 0.0 8.0 0.00 0.00 0.00 65 1012.4
20260504230058 12 155 4.8 9.7 0.00 0.00 0.00 67 1012.4
20260504224551 11 316 3.2 12.9 0.00 0.00 0.00 69 1012.4
20260504223054 12 72 1.6 4.8 0.00 0.00 0.00 67 1012.1
20260504221559 12 72 1.6 3.2 0.00 0.00 0.00 65 1012.1
20260504220050 13 72 1.6 4.8 0.00 0.00 0.00 63 1012.1
20260504214548 12 69 3.2 4.8 0.00 0.00 0.00 65 1012.2
20260504213051 12 175 3.2 4.8 0.00 0.00 0.00 65 1012.3
20260504211553 13 175 0.0 4.8 0.00 0.00 0.00 65 1012.2
20260504210107 13 175 1.6 4.8 0.00 0.00 0.00 63 1012.4
20260504204559 13 175 1.6 4.8 0.00 0.00 0.00 63 1012.3
20260504203050 13 175 1.6 4.8 0.00 0.00 0.00 64 1012.3
20260504201556 14 175 1.6 3.2 0.00 0.00 0.00 63 1012.2
20260504200057 15 0 0.0 0.0 0.00 0.00 0.00 60 1012.2
20260504194606 16 0 1.6 3.2 0.00 0.00 0.00 58 1012.2
20260504193048 16 0 0.0 3.2 0.00 0.00 0.00 53 1012.2
20260504191551 17 0 0.0 0.0 0.00 0.00 0.00 51 1012.1
20260504190104 18 0 0.0 3.2 0.00 0.00 0.00 49 1012.1
20260504184556 20 0 0.0 3.2 0.00 0.00 0.00 43 1012.0
20260504183047 21 0 0.0 4.8 0.00 0.00 0.00 38 1011.9
20260504181553 21 0 1.6 3.2 0.00 0.00 0.00 38 1011.7
20260504180122 22 226 3.2 4.8 0.00 0.00 0.00 37 1011.7
20260504174556 23 231 3.2 8.0 0.00 0.00 0.00 35 1011.8
20260504173113 23 234 4.8 9.7 0.00 0.00 0.00 36 1011.7
20260504171556 24 244 6.4 11.3 0.00 0.00 0.00 35 1011.5
20260504140109 26 247 12.9 24.1 0.00 0.00 0.00 29 1012.3
20260504120112 25 198 17.7 32.2 0.00 0.00 0.00 32 1013.2
20260504081552 21 238 16.1 30.6 0.00 0.00 0.00 37 1015.0